• In Russia
  • List of Countries
  • For 7 days
  • Water Temperature
  • Weather Map
  • Weather Widgets
  • user-avatar
    Login

    Hourly Weather Tibissa

    Today, 15 December, Sunday

    Time Temperature Precipitation Wind Pressure Humidity
    00:00 +10°C° 0 mm 2 mps 686 mmHg 69%
    01:00 +10°C° 0 mm 2 mps 686 mmHg 68%
    02:00 +9°C° 0 mm 2 mps 686 mmHg 68%
    03:00 +9°C° 0 mm 3 mps 686 mmHg 68%
    04:00 +9°C° 0 mm 3 mps 685 mmHg 68%
    05:00 +9°C° 0 mm 2 mps 685 mmHg 68%
    06:00 +9°C° 0 mm 2 mps 685 mmHg 68%
    07:00 +9°C° 0 mm 2 mps 685 mmHg 68%
    08:00 +10°C° 0 mm 3 mps 686 mmHg 62%
    09:00 +12°C° 0 mm 3 mps 687 mmHg 57%
    10:00 +13°C° 0 mm 3 mps 687 mmHg 52%
    11:00 +14°C° 0 mm 4 mps 687 mmHg 47%
    12:00 +16°C° 0 mm 5 mps 687 mmHg 42%
    13:00 +17°C° 0 mm 5 mps 687 mmHg 38%
    14:00 +17°C° 0 mm 5 mps 687 mmHg 40%
    15:00 +16°C° 0 mm 5 mps 687 mmHg 43%
    16:00 +17°C° 0 mm 4 mps 686 mmHg 45%
    17:00 +14°C° 0 mm 4 mps 686 mmHg 51%
    18:00 +13°C° 0 mm 3 mps 686 mmHg 58%
    19:00 +11°C° 0 mm 3 mps 686 mmHg 64%
    20:00 +11°C° 0 mm 3 mps 686 mmHg 64%
    21:00 +10°C° 0 mm 3 mps 686 mmHg 65%
    22:00 +10°C° 0 mm 3 mps 686 mmHg 66%
    23:00 +10°C° 0 mm 3 mps 686 mmHg 66%

    Tomorrow, 16 December, Monday

    Time Temperature Precipitation Wind Pressure Humidity
    00:00 +10°C° 0 mm 3 mps 686 mmHg 67%
    01:00 +9°C° 0 mm 3 mps 686 mmHg 67%
    02:00 +8°C° 0 mm 4 mps 685 mmHg 68%
    03:00 +8°C° 0 mm 4 mps 685 mmHg 69%
    04:00 +8°C° 0 mm 4 mps 685 mmHg 70%
    05:00 +8°C° 0 mm 4 mps 685 mmHg 71%
    06:00 +8°C° 0 mm 4 mps 685 mmHg 73%
    07:00 +7°C° 0 mm 4 mps 685 mmHg 74%
    08:00 +10°C° 0 mm 4 mps 685 mmHg 68%
    09:00 +12°C° 0 mm 5 mps 686 mmHg 62%
    10:00 +13°C° 0 mm 5 mps 686 mmHg 55%
    11:00 +14°C° 0 mm 6 mps 686 mmHg 51%
    12:00 +15°C° 0 mm 7 mps 686 mmHg 48%
    13:00 +16°C° 0 mm 8 mps 685 mmHg 44%
    14:00 +16°C° 0 mm 8 mps 685 mmHg 45%
    15:00 +15°C° 0 mm 8 mps 684 mmHg 47%
    16:00 +15°C° 0 mm 8 mps 684 mmHg 48%
    17:00 +12°C° 0 mm 7 mps 683 mmHg 53%
    18:00 +11°C° 0 mm 6 mps 683 mmHg 59%
    19:00 +10°C° 0 mm 5 mps 683 mmHg 65%
    20:00 +10°C° 0 mm 6 mps 683 mmHg 64%
    21:00 +10°C° 0 mm 7 mps 683 mmHg 62%
    22:00 +9°C° 0 mm 8 mps 683 mmHg 61%
    23:00 +9°C° 0 mm 8 mps 683 mmHg 60%

    Day after tomorrow, 17 December, Tuesday

    Time Temperature Precipitation Wind Pressure Humidity
    00:00 +10°C° 0 mm 8 mps 682 mmHg 59%
    01:00 +10°C° 0 mm 8 mps 682 mmHg 57%
    02:00 +10°C° 0 mm 8 mps 682 mmHg 57%
    03:00 +10°C° 0 mm 7 mps 681 mmHg 56%
    04:00 +10°C° 0 mm 7 mps 681 mmHg 55%
    05:00 +9°C° 0 mm 7 mps 681 mmHg 56%
    06:00 +9°C° 0 mm 7 mps 680 mmHg 56%
    07:00 +9°C° 0 mm 7 mps 680 mmHg 56%
    08:00 +10°C° 0 mm 6 mps 680 mmHg 54%
    09:00 +10°C° 0 mm 6 mps 681 mmHg 53%
    10:00 +11°C° 0 mm 6 mps 681 mmHg 51%
    11:00 +12°C° 0 mm 7 mps 681 mmHg 46%
    12:00 +15°C° 0 mm 8 mps 680 mmHg 41%
    13:00 +16°C° 0 mm 9 mps 680 mmHg 36%
    14:00 +16°C° 0 mm 9 mps 679 mmHg 38%
    15:00 +15°C° 0 mm 9 mps 679 mmHg 40%
    16:00 +13°C° 0 mm 9 mps 678 mmHg 43%
    17:00 +12°C° 0 mm 9 mps 678 mmHg 48%
    18:00 +11°C° 0 mm 9 mps 677 mmHg 54%
    19:00 +10°C° 0 mm 9 mps 676 mmHg 59%
    20:00 +10°C° 0 mm 8 mps 676 mmHg 61%
    21:00 +10°C° 0 mm 8 mps 676 mmHg 63%
    22:00 +10°C° 0 mm 7 mps 676 mmHg 64%
    23:00 +9°C° 0 mm 7 mps 676 mmHg 64%

    18 December, Wednesday

    Time Temperature Precipitation Wind Pressure Humidity
    00:00 +9°C° 0 mm 6 mps 675 mmHg 63%
    01:00 +9°C° 0 mm 5 mps 675 mmHg 63%
    02:00 +8°C° 0 mm 6 mps 675 mmHg 66%
    03:00 +5°C° 0 mm 7 mps 675 mmHg 68%
    04:00 +4°C° 0 mm 8 mps 675 mmHg 71%
    05:00 +4°C° 0 mm 8 mps 675 mmHg 75%
    06:00 +2°C° 0 mm 8 mps 676 mmHg 79%
    07:00 +2°C° 0 mm 8 mps 676 mmHg 83%
    08:00 +3°C° 0 mm 9 mps 677 mmHg 79%
    09:00 +5°C° 0 mm 10 mps 678 mmHg 74%
    10:00 +5°C° 0 mm 10 mps 678 mmHg 69%
    11:00 +6°C° 0 mm 11 mps 679 mmHg 66%
    12:00 +7°C° 0 mm 11 mps 679 mmHg 63%
    13:00 +8°C° 0 mm 11 mps 679 mmHg 60%
    14:00 +8°C° 0 mm 11 mps 679 mmHg 59%
    15:00 +8°C° 0 mm 10 mps 679 mmHg 58%
    16:00 +8°C° 0 mm 10 mps 680 mmHg 57%
    17:00 +7°C° 0 mm 9 mps 680 mmHg 61%
    18:00 +6°C° 0 mm 8 mps 681 mmHg 64%
    19:00 +7°C° 0 mm 6 mps 681 mmHg 68%
    20:00 +5°C° 0 mm 6 mps 682 mmHg 70%
    21:00 +5°C° 0 mm 6 mps 682 mmHg 71%
    22:00 +6°C° 0 mm 5 mps 683 mmHg 73%
    23:00 +6°C° 0 mm 5 mps 683 mmHg 72%

    19 December, Thursday

    Time Temperature Precipitation Wind Pressure Humidity
    00:00 +6°C° 0 mm 5 mps 683 mmHg 71%
    01:00 +5°C° 0 mm 4 mps 684 mmHg 71%
    02:00 +5°C° 0 mm 4 mps 684 mmHg 70%
    03:00 +5°C° 0 mm 3 mps 684 mmHg 70%
    04:00 +5°C° 0 mm 3 mps 684 mmHg 70%
    05:00 +5°C° 0 mm 3 mps 684 mmHg 70%
    06:00 +6°C° 0 mm 2 mps 684 mmHg 70%
    07:00 +5°C° 0 mm 2 mps 684 mmHg 70%
    08:00 +7°C° 0 mm 2 mps 685 mmHg 63%
    09:00 +9°C° 0 mm 2 mps 686 mmHg 57%
    10:00 +12°C° 0 mm 2 mps 687 mmHg 50%
    11:00 +12°C° 0 mm 3 mps 687 mmHg 44%
    12:00 +13°C° 0 mm 3 mps 687 mmHg 39%
    13:00 +14°C° 0 mm 4 mps 687 mmHg 33%
    14:00 +14°C° 0 mm 3 mps 686 mmHg 35%
    15:00 +14°C° 0 mm 3 mps 686 mmHg 37%
    16:00 +15°C° 0 mm 2 mps 686 mmHg 39%
    17:00 +13°C° 0 mm 2 mps 686 mmHg 44%
    18:00 +12°C° 0 mm 2 mps 686 mmHg 49%
    19:00 +10°C° 0 mm 2 mps 685 mmHg 53%
    20:00 +9°C° 0 mm 2 mps 686 mmHg 54%
    21:00 +9°C° 0 mm 2 mps 686 mmHg 55%
    22:00 +9°C° 0 mm 2 mps 686 mmHg 56%
    23:00 +8°C° 0 mm 2 mps 686 mmHg 57%

    20 December, Friday

    Time Temperature Precipitation Wind Pressure Humidity
    00:00 +8°C° 0 mm 3 mps 685 mmHg 59%
    01:00 +8°C° 0 mm 3 mps 685 mmHg 60%
    02:00 +8°C° 0 mm 3 mps 685 mmHg 61%
    03:00 +8°C° 0 mm 3 mps 684 mmHg 62%
    04:00 +8°C° 0 mm 3 mps 684 mmHg 64%
    05:00 +8°C° 0 mm 3 mps 684 mmHg 65%
    06:00 +7°C° 0 mm 4 mps 684 mmHg 66%
    07:00 +6°C° 0 mm 4 mps 683 mmHg 67%
    08:00 +8°C° 0 mm 5 mps 684 mmHg 61%
    09:00 +9°C° 0 mm 6 mps 684 mmHg 55%
    10:00 +11°C° 0 mm 8 mps 684 mmHg 50%
    11:00 +12°C° 0 mm 9 mps 684 mmHg 46%
    12:00 +12°C° 0 mm 10 mps 683 mmHg 43%
    13:00 +13°C° 0 mm 11 mps 683 mmHg 39%
    14:00 +12°C° 0 mm 10 mps 682 mmHg 38%
    15:00 +12°C° 0 mm 10 mps 682 mmHg 37%
    16:00 +12°C° 0 mm 10 mps 681 mmHg 37%
    17:00 +11°C° 0 mm 9 mps 681 mmHg 41%
    18:00 +10°C° 0 mm 8 mps 680 mmHg 46%
    19:00 +8°C° 0 mm 7 mps 680 mmHg 50%
    20:00 +9°C° 0 mm 8 mps 680 mmHg 48%
    21:00 +9°C° 0 mm 8 mps 681 mmHg 46%
    22:00 +10°C° 0 mm 9 mps 681 mmHg 45%
    23:00 +9°C° 0 mm 8 mps 681 mmHg 45%
    Show more